Oxford, CT

6:16 AM EST on November 19, 2017 (GMT -0500)
Waterbury-Oxford

Weather History for KOXC - October, 2011

Change the Weather History Date:

Monday, October 10, 2011

  Actual Average Record
Temperature  
Mean Temperature 66 °F -  
Max Temperature 80 °F 59 °F 80 °F (2011)
Min Temperature 51 °F 41 °F 30 °F (2000)
Growing Degree Days 16 (Base 50)    
Moisture  
Dew Point 51 °F    
Average Humidity 71    
Maximum Humidity 94    
Minimum Humidity 32    
Precipitation  
Precipitation 0.00 in - - ()
Sea Level Pressure  
Sea Level Pressure 30.24 in    
Wind  
Wind Speed 3 mph (North)    
Max Wind Speed 13 mph    
Max Gust Speed 18 mph    
Visibility 10 miles    
Events      
Averages and records for this station are not official NWS values.
T = Trace of Precipitation, MM = Missing Value Source: NWS Daily Summary

Daily Weather History Graph

Daily Weather History Graph

Search for Another Location

Airport or City:

Trip Planner

Search our weather history database for the weather conditions in past years. The results will help you decide how hot, cold, wet, or windy it might be!

Date:

Astronomy

Oct. 10, 2011 Rise Set
Actual Time 6:58 AM EDT 6:19 PM EDT
Civil Twilight 6:30 AM EDT 6:47 PM EDT
Nautical Twilight 5:58 AM EDT 7:19 PM EDT
Astronomical Twilight 5:26 AM EDT 7:51 PM EDT
Moon 5:22 PM EDT (10/10) 5:37 AM EDT (10/10)
Length of Visible Light 12h 16m
Length of Day
11h 21m
Waxing Gibbous, 98% of the Moon is Illuminated
Oct 10
Waxing Gibbous
Oct 11
Full
Oct 19
Last Quarter
Oct 26
New
Nov 2
First Quarter

Hourly Weather History & Observations

Time (EDT) Temp. Dew Point Humidity Pressure Visibility Wind Dir Wind Speed Gust Speed Precip Events Conditions
12:15 AM 55.4 °F 51.8 °F 88% 30.31 in 10.0 mi North 3.5 mph - N/A   Clear
12:35 AM 55.4 °F 51.8 °F 88% 30.30 in 10.0 mi Calm Calm - N/A   Clear
12:55 AM 57.2 °F 53.6 °F 88% 30.30 in 10.0 mi Calm Calm - N/A   Clear
1:15 AM 55.4 °F 50.0 °F 82% 30.30 in 10.0 mi North 3.5 mph - N/A   Clear
1:35 AM 55.4 °F 51.8 °F 88% 30.30 in 10.0 mi North 3.5 mph - N/A   Clear
2:15 AM 53.6 °F 48.2 °F 82% 30.29 in 10.0 mi NNW 4.6 mph - N/A   Clear
2:35 AM 55.4 °F 51.8 °F 88% 30.28 in 10.0 mi NNW 3.5 mph - N/A   Clear
2:55 AM 55.4 °F 50.0 °F 82% 30.27 in 10.0 mi NNW 3.5 mph - N/A   Clear
3:15 AM 55.4 °F 51.8 °F 88% 30.28 in 10.0 mi NNW 3.5 mph - N/A   Clear
3:35 AM 53.6 °F 50.0 °F 88% 30.28 in 10.0 mi Calm Calm - N/A   Clear
3:55 AM 53.6 °F 51.8 °F 94% 30.28 in 10.0 mi Calm Calm - N/A   Clear
4:35 AM 53.6 °F 50.0 °F 88% 30.27 in 9.0 mi Calm Calm - N/A   Clear
4:55 AM 51.8 °F 48.2 °F 88% 30.27 in 10.0 mi Calm Calm - N/A   Clear
5:15 AM 51.8 °F 48.2 °F 88% 30.27 in 10.0 mi Calm Calm - N/A   Clear
5:35 AM 51.8 °F 48.2 °F 88% 30.27 in 10.0 mi Calm Calm - N/A   Clear
6:45 AM 55.4 °F 50.0 °F 82% 30.28 in 10.0 mi Calm Calm - N/A   Clear
7:45 AM 57.2 °F 51.8 °F 82% 30.29 in 10.0 mi North 6.9 mph - N/A   Clear
9:45 AM 69.8 °F 57.2 °F 64% 30.28 in 10.0 mi North 9.2 mph - N/A   Clear
11:45 AM 77.0 °F 55.4 °F 47% 30.25 in 10.0 mi North 11.5 mph 18.4 mph N/A   Clear
12:45 PM 78.8 °F 53.6 °F 42% 30.23 in 10.0 mi North 12.7 mph - N/A   Clear
2:45 PM 80.6 °F 51.8 °F 37% 30.20 in 10.0 mi NNW 6.9 mph - N/A   Clear
3:45 PM 80.6 °F 48.2 °F 32% 30.18 in 10.0 mi NNW 12.7 mph - N/A   Clear
4:45 PM 80.6 °F 48.2 °F 32% 30.17 in 10.0 mi NNW 8.1 mph - N/A   Clear
5:45 PM 75.2 °F 48.2 °F 38% 30.18 in 10.0 mi NNW 4.6 mph - N/A   Clear
6:45 PM 64.4 °F 51.8 °F 64% 30.18 in 10.0 mi Calm Calm - N/A   Clear
8:45 PM 64.4 °F 50.0 °F 59% 30.18 in 10.0 mi Calm Calm - N/A   Clear
8:55 PM 64.4 °F 48.2 °F 56% 30.19 in 10.0 mi North 3.5 mph - N/A   Clear
9:15 PM 60.8 °F 50.0 °F 68% 30.18 in 10.0 mi North 3.5 mph - N/A   Clear
9:35 PM 62.6 °F 51.8 °F 68% 30.19 in 10.0 mi Calm Calm - N/A   Clear
9:55 PM 62.6 °F 51.8 °F 68% 30.19 in 10.0 mi NNW 3.5 mph - N/A   Clear
10:15 PM 60.8 °F 51.8 °F 72% 30.19 in 10.0 mi North 3.5 mph - N/A   Clear
10:35 PM 62.6 °F 51.8 °F 68% 30.19 in 10.0 mi North 3.5 mph - N/A   Clear
10:55 PM 60.8 °F 51.8 °F 72% 30.19 in 10.0 mi North 3.5 mph - N/A   Clear
11:35 PM 60.8 °F 51.8 °F 72% 30.19 in 10.0 mi NNE 4.6 mph - N/A   Clear
11:55 PM 62.6 °F 51.8 °F 68% 30.19 in 10.0 mi North 4.6 mph - N/A   Clear